Погода в Отранто

Италия     40°08′33″N   18°29′21″E
темп.,
°C
ветер,
м/с
пор.,
м/с
влажн.,
%
обл.,
%
осадки,
мм/ч
давл.,
гПа
погр.,
м
3 марта, ср
ср301:00+13с78650 0.0 1031659
04:00+13с89680 0.0 1030818
07:00+13с89730 0.0 1030786
10:00+14с88730 0.0 1031842
13:00+14ссз78760 0.0 1030733
16:00+14ссз78780 0.0 1029579
19:00+13ссз67810 0.0 1029492
22:00+13ссз56780 0.0 1029472
4 марта, чт
чт401:00+13сз45770 0.0 1028469
04:00+11сз45790 0.0 1026269
07:00+11сз34730 0.0 1026196
10:00+13сз22650 0.0 1026284
13:00+13всв33670 0.0 1024276
16:00+13юв44650 0.0 1022338
19:00+13юз55705 0.0 1022282
22:00+13ююз57741 0.0 1022418
5 марта, пт
пт501:00+12ююз56741 0.0 1020465
04:00+13ю677360 0.0 1019582
07:00+13ю688059 0.0 1019755
10:00+14ю897535 0.0 10191085
13:00+15ю9107365 0.2 10181070
16:00+14ю8973100 0.3 10181051
19:00+14ю8974100 0.3 1018923
22:00+14ю7875100 0.1 1019886
6 марта, сб
сб601:00+13ююз687799 0.4 1020716
04:00+13ю567499 0.2 1019344
07:00+13ююв237682 0.4 1020364
10:00+14в227532 1.0 1021330
13:00+14вюв437916 1.3 1021385
16:00+14юв31770 0.1 1021438
19:00+14ссз33700 0.1 1022585
22:00+14с45710 0.0 1024599
7 марта, вс
вс701:00+13ссз67750 0.0 1023761
04:00+13ссз687865 0.0 1023709
07:00+12с797480 0.0 1023609
10:00+12с787275 0.0 1024724
13:00+12с786837 0.0 1023733
16:00+12с78700 0.0 1021741
19:00+12ссз67710 0.0 1021739
22:00+12ссз67720 0.0 1021752